Regional Weather Roundup
Issued by NWS

Home | Current Version | Previous Version | Graphics & Text | Print | Product List | Glossary On
Versions: 1 2 3 4 5 6 7 8 9 10 11 12 13 14 15 16 17 18 19 20 21 22 23 24 25 26 27
000
ASUS45 KBOI 241210
RWRID

IDAHO REGIONAL WEATHER ROUNDUP
NATIONAL WEATHER SERVICE BOISE ID
600 AM MDT SAT JUN 24 2017

NOTE: "FAIR" INDICATES FEW OR NO CLOUDS BELOW 12000 FEET
WITH NO SIGNIFICANT WEATHER AND/OR OBSTRUCTIONS TO VISIBILITY

IDZ012-014-241300-
SOUTHWEST IDAHO


CITY           SKY/WX    TMP DP  RH WIND       PRES   REMARKS
BOISE          CLEAR     56  39  53 CALM      30.14R
CALDWELL       CLEAR     56  43  61 W8        30.14S
MOUNTAIN HOME  CLEAR     56  34  43 NW7       30.14R
$$

IDZ016-017-241300-
SOUTHCENTRAL IDAHO


CITY           SKY/WX    TMP DP  RH WIND       PRES   REMARKS
BURLEY         CLEAR     48  37  65 S3        30.20R
JEROME         CLEAR     51  32  48 SE6       30.20R
TWIN FALLS     CLEAR     58  30  34 S12       30.20R
$$

IDZ019>023-241300-
SOUTHEAST IDAHO


CITY           SKY/WX    TMP DP  RH WIND       PRES   REMARKS
IDAHO FALLS    CLEAR     42  40  92 N3        30.26R
POCATELLO      CLEAR     42  38  85 CALM      30.24R
REXBURG        CLEAR     44  39  82 E3        30.27R
$$

IDZ006-010-011-018-031-032-241300-
CENTRAL IDAHO MOUNTAINS


CITY           SKY/WX    TMP DP  RH WIND       PRES   REMARKS
MCCALL         CLEAR     45  33  63 SW5       30.25S
HAILEY         CLEAR     50  37  62 NW9       30.27S
STANLEY          N/A     33  30  88 CALM      30.36S
SALMON         CLEAR     41  36  81 CALM      30.28R
CHALLIS        CLEAR     45  34  65 CALM      30.29R
$$

IDZ002-004-006-007-026-241300-
NORTHERN IDAHO


CITY           SKY/WX    TMP DP  RH WIND       PRES   REMARKS
LEWISTON       NOT AVBL
LOWELL           N/A     47  44  90 CALM      30.27R
COEUR D`ALENE  CLEAR     52  42  69 E8        30.23R
MULLAN PASS    CLEAR     53  28  38 CALM      30.34R
$$




USA.gov is the U.S. government's official web portal to all federal, state and local government web resources and services.